Presure
177 230 191 130 168 187 206 84 206 134 78 78 82 83 84 84 84 87 158 211 209 206 203 202 194 196 199 192 157 173 178 103 88 89 87 84 84 86 84 178 101 140 116 135 129 172 132 160 96
178 198 160 196 83 145 111 136 200 199 103 192 83 83 192 95 84 86 84 82 170 209 210 206 198 147 143 172 189 194 185 136 145 171 78 78 107 82 169 87 122 184 189 143 183 127 100 142 188
171 188 196 189 177 189 204 158 188 196 173 179 196 194 183 113 82 82 84 89 82 88 116 216 215 207 200 164 188 189 151 150 92 152 164 170 168 162 186 179 172 169 182 155 174 179 180 155 190
128 189 194 156 158 200 186 208 156 216 197 171 168 232 215 177 200 85 205 232 82 81 88 92 121 203 222 177 200 170 184 164 153 174 178 169 153 169 169 174 182 139 170 151 150 103 188 134 166
163 168 170 202 178 187 173 162 198 187 172 207 177 212 189 95 170 215 117 91 199 79 104 80 82 91 89 90 124 128 194 168 162 172 167 149 176 168 165 131 125 170 181 172 128 172 171 172 159
177 186 147 151 167 187 190 181 190 195 184 192 196 182 202 210 224 188 91 166 81 165 93 85 88 123 89 88 87 90 91 94 89 164 155 180 157 166 174 168 183 163 161 178 178 176 178 157 168
159 169 168 181 193 185 171 189 172 196 179 168 177 201 181 208 233 193 241 228 207 174 137 187 84 94 102 86 90 96 91 91 91 90 88 94 177 130 130 166 171 162 189 168 163 153 106 176 174
193 169 195 174 169 194 193 192 202 173 206 181 208 190 209 222 181 223 227 232 223 223 188 215 100 199 98 82 83 87 91 89 91 159 183 165 90 88 94 143 167 167 168 167 163 172 154 172 163
177 181 143 182 190 162 169 189 193 195 201 170 194 195 193 189 178 195 186 214 185 290 244 222 206 212 184 201 212 114 97 93 94 90 91 97 96 176 104 118 158 127 158 169 166 169 166 150 171
177 179 184 190 189 187 193 170 188 187 201 198 183 189 194 163 193 208 187 177 187 227 381 185 245 221 196 205 199 209 204 155 197 114 93 96 94 96 139 135 107 141 136 176 156 172 180 183 175
162 174 166 185 165 171 187 185 186 190 198 197 204 171 211 190 171 179 215 153 215 156 230 406 246 231 242 224 209 209 204 207 203 178 187 181 99 103 190 132 126 95 99 119 103 185 114 155 168
172 178 172 152 191 189 175 189 191 198 195 170 190 199 192 206 211 180 204 220 162 179 206 253 176 241 215 232 225 220 198 212 202 195 190 214 203 181 184 197 203 114 102 91 102 164 171 187 181
169 173 187 176 176 193 184 205 204 179 199 211 191 197 203 173 177 183 206 188 216 231 193 163 174 327 305 77 231 216 234 238 224 206 191 196 192 222 204 88 149 97 122 85 179 170 94 163 84
138 186 172 187 178 171 181 186 182 183 188 166 154 194 205 190 199 207 187 148 198 201 176 180 231 237 265 349 250 229 233 238 230 216 209 211 199 186 193 234 190 200 191 185 106 93 174 121 95
180 174 183 174 182 178 172 187 184 189 180 191 198 202 199 207 209 201 195 194 192 211 220 201 179 194 235 161 297 313 232 245 244 226 214 206 201 201 210 79 73 206 77 209 152 83 85 181 105
184 184 182 188 198 194 192 191 195 182 189 190 193 194 189 194 202 197 212 185 185 169 181 216 218 217 229 254 262 248 301 291 245 256 226 225 212 212 201 199 188 194 192 179 103 99 75 105 134
175 168 175 166 167 167 170 175 170 179 180 178 193 203 216 197 198 192 204 198 200 167 206 187 205 209 219 213 192 224 241 286 291 237 227 214 221 214 211 216 181 204 205 99 139 200 190 187 150
177 168 170 171 186 169 169 172 171 169 176 183 183 187 191 190 215 213 183 202 180 202 184 204 186 189 165 217 252 253 237 250 282 280 276 224 210 214 244 224 216 213 209 200 200 201 201 197 196
175 173 192 175 170 165 161 171 178 192 208 182 198 200 204 190 209 197 241 199 214 202 199 191 202 184 193 214 170 251 212 231 241 278 273 271 256 217 207 260 239 223 216 212 209 193 208 199 199
178 177 166 176 174 186 183 176 175 187 199 197 201 199 186 210 204 215 257 232 254 232 258 208 220 210 202 207 212 254 206 230 196 230 267 265 260 267 263 218 207 235 236 226 215 212 206 203 207
175 164 163 184 170 177 184 176 167 177 201 195 209 213 213 224 229 226 210 249 246 224 237 200 236 215 211 181 243 243 247 239 193 218 206 232 266 258 261 253 252 252 211 213 223 224 234 226 215
168 185 156 180 163 157 161 167 164 171 200 184 191 212 211 217 215 231 207 266 257 259 216 246 195 203 239 203 245 237 236 244 233 220 226 231 219 269 258 257 260 250 240 213 231 204 205 212 218
147 168 189 157 196 165 192 181 163 179 183 216 218 203 229 213 221 232 250 270 261 254 253 195 235 196 237 252 237 241 237 234 231 201 180 194 216 224 242 263 251 250 256 256 248 242 253 251 202
192 164 168 168 161 171 200 162 185 192 180 198 199 217 228 131 255 234 264 265 257 254 251 245 244 237 209 243 220 232 232 233 239 228 208 215 211 195 200 190 226 240 256 260 258 259 253 255 246
156 158 183 188 186 175 174 181 179 205 211 205 208 211 224 271 245 255 264 264 261 252 253 248 238 233 249 240 228 217 235 232 232 239 229 218 181 216 226 228 219 219 234 228 223 240 262 264 250
169 175 181 155 172 180 170 193 202 180 197 182 194 220 232 268 256 260 266 267 261 255 246 248 246 239 237 237 230 211 253 237 228 237 230 230 225 226 219 212 229 230 228 234 239 250 253 248 245
170 155 177 186 171 172 187 184 180 190 186 224 208 223 231 282 260 266 266 265 259 258 246 245 249 241 244 224 226 229 248 244 231 227 234 227 239 220 227 220 222 215 235 192 221 240 239 257 268
156 165 174 180 184 179 177 216 221 216 218 234 244 239 253 273 263 266 267 269 260 253 246 245 243 240 215 240 234 227 245 244 241 229 228 209 223 227 224 237 241 248 232 227 217 246 247 215 260
178 177 168 187 175 186 177 198 217 191 201 234 236 248 274 269 265 265 273 254 253 255 247 248 242 241 234 236 235 226 228 237 247 233 233 241 217 216 225 228 240 236 241 240 249 257 246 263 273
168 171 165 166 167 190 198 183 206 203 224 242 298 280 275 262 270 274 271 260 261 258 250 248 250 249 236 259 244 234 236 247 253 236 233 235 234 225 227 232 239 238 241 244 251 185 252 264 263
Wind_Speed
14 16 16 22 16 14 24 37 15 27 31 32 31 34 36 32 27 24 45 64 68 70 64 63 62 60 62 64 51 57 57 33 28 27 26 23 23 25 25 41 26 47 35 44 37 36 38 46 24
14 21 26 11 43 23 34 27 21 19 27 23 35 36 37 38 34 31 28 29 50 68 65 62 62 53 54 59 62 65 63 47 50 57 23 25 33 26 52 28 37 41 38 37 42 39 30 45 40
16 18 24 16 13 19 22 29 12 20 24 23 24 30 35 37 38 33 33 36 32 37 40 67 64 66 63 62 60 63 55 51 33 54 62 60 58 53 50 50 50 49 43 46 47 43 43 37 41
29 20 21 22 20 19 19 21 33 16 22 28 28 19 27 31 38 40 29 31 33 35 41 34 39 59 66 61 66 64 64 60 61 61 64 63 58 56 56 54 50 48 52 48 43 36 41 44 42
21 19 16 24 11 17 16 27 17 22 26 23 26 22 34 52 37 36 43 47 27 33 33 19 27 37 34 30 41 46 69 62 61 63 63 62 63 63 60 47 41 55 52 52 40 49 48 49 51
16 19 22 23 22 17 17 16 16 17 27 27 24 34 22 25 21 28 22 25 27 31 45 41 44 42 34 30 36 37 37 36 35 63 64 70 63 66 65 64 62 59 56 53 51 51 50 52 47
24 22 23 16 20 16 19 17 24 14 20 31 27 22 32 24 32 29 25 22 21 30 46 59 52 47 37 47 42 45 39 37 38 37 35 33 68 54 46 68 63 59 59 58 58 53 41 54 53
31 20 32 20 24 20 16 13 24 28 21 26 23 24 20 27 28 25 26 17 22 30 35 63 63 50 46 38 38 41 42 46 46 63 71 71 37 38 35 58 66 65 63 62 61 61 58 57 55
26 15 23 19 27 27 27 20 22 22 27 32 23 20 23 29 32 21 26 22 31 20 50 61 51 64 66 79 69 56 54 50 50 42 43 42 41 74 41 50 62 51 62 66 65 65 64 57 56
22 25 25 36 31 29 33 29 26 27 31 24 29 28 21 33 29 20 17 36 33 18 22 46 70 74 67 79 66 74 70 63 69 61 46 47 44 43 59 58 50 59 57 72 62 69 71 68 62
25 26 29 35 29 28 33 33 29 31 35 28 30 34 30 22 36 26 18 50 21 57 28 17 67 72 82 84 75 70 69 73 75 69 71 74 48 52 82 60 59 45 45 50 43 76 51 59 63
34 37 32 33 45 40 36 36 37 41 37 36 26 31 28 29 27 24 23 22 42 43 24 35 62 70 71 76 74 74 64 79 76 74 77 84 83 75 74 77 81 50 49 40 46 70 71 74 69
36 40 45 38 37 42 35 47 49 33 46 48 34 34 35 34 33 30 25 24 25 33 33 56 56 12 49 33 69 62 69 70 82 79 81 84 77 81 84 37 65 46 55 42 79 77 44 70 33
33 39 35 42 38 37 35 42 35 36 42 36 39 42 45 35 33 34 30 44 24 24 45 44 20 18 19 26 76 66 65 72 74 80 79 80 83 80 80 79 82 86 86 85 53 42 78 55 45
44 42 44 40 47 42 37 47 47 48 37 45 51 51 45 49 44 35 35 34 30 27 33 32 40 40 26 52 24 34 63 71 75 78 82 81 84 85 84 44 39 80 42 79 68 47 40 78 59
44 44 46 47 47 47 51 53 54 45 52 49 50 49 42 43 49 40 49 35 33 36 38 31 31 29 36 31 26 29 35 44 69 78 77 83 85 88 87 84 82 83 83 80 57 53 42 57 65
47 45 49 41 44 45 45 51 41 50 49 43 59 62 69 51 46 42 47 42 41 40 38 40 31 30 35 38 45 37 33 36 43 67 73 78 80 84 85 89 80 89 87 57 70 89 90 89 74
51 49 52 49 59 55 56 62 54 47 55 58 51 52 53 47 67 61 42 47 42 45 41 39 41 41 53 36 35 32 38 31 38 45 50 76 79 81 85 89 87 87 88 86 88 88 89 94 95
56 56 53 61 59 55 48 66 74 76 81 65 79 78 77 49 69 46 83 47 54 47 46 43 42 43 40 40 53 35 46 39 35 38 45 52 66 79 80 75 87 88 89 90 90 91 90 92 94
62 61 57 65 67 67 69 72 77 80 86 85 83 79 58 86 69 78 78 74 64 58 44 50 48 45 42 42 42 36 51 42 53 41 39 48 51 54 62 79 83 85 92 90 90 92 93 94 92
58 60 61 65 72 70 74 76 75 78 90 88 91 88 87 85 82 88 65 69 64 50 45 52 46 49 43 51 40 39 39 42 61 49 52 45 47 50 57 63 69 75 84 84 87 91 95 94 93
67 68 52 69 62 57 61 66 73 78 86 83 87 91 91 86 83 85 66 61 53 46 51 43 53 50 44 47 41 42 40 41 45 48 48 45 53 53 52 54 65 69 73 85 85 89 88 89 90
50 73 78 60 76 74 80 83 81 89 86 95 100 93 91 89 85 81 75 60 49 48 46 55 50 53 44 47 40 43 43 42 49 59 58 59 54 52 42 44 53 58 63 71 78 80 81 87 91
73 74 79 77 68 76 88 70 92 94 90 91 90 90 88 38 74 79 63 59 50 48 46 47 46 45 53 48 43 44 46 44 46 52 52 57 59 63 59 61 55 51 51 58 65 72 75 79 86
66 68 86 83 84 83 84 90 95 103 99 94 92 92 90 80 75 68 60 57 51 48 46 46 47 47 52 50 45 48 52 48 49 51 55 58 61 58 54 55 60 60 57 61 65 62 61 71 81
91 96 93 63 81 88 85 98 103 95 101 86 96 90 85 79 72 66 58 56 49 49 48 47 47 49 49 50 49 50 53 50 49 54 54 56 59 58 59 61 57 59 62 61 60 57 59 66 70
93 68 95 101 87 94 100 102 101 104 101 100 100 92 83 73 70 62 56 55 51 48 48 48 49 50 54 52 53 54 57 57 56 55 56 56 54 60 59 63 63 63 63 67 61 62 66 59 58
75 86 97 105 110 104 107 111 101 106 105 97 102 92 97 71 66 61 56 54 51 49 48 50 50 51 56 58 58 57 59 55 60 58 59 57 58 58 62 59 61 59 65 64 62 62 64 58 59
116 103 103 112 108 112 111 104 108 112 110 101 96 94 80 68 64 60 57 52 52 52 51 52 53 55 57 59 62 59 59 59 62 64 60 61 63 64 64 63 62 63 63 64 63 63 61 59 58
107 110 93 88 103 115 116 114 114 115 110 99 86 84 72 69 64 60 53 50 51 52 54 55 55 57 59 64 65 64 64 65 63 66 65 62 62 66 66 65 64 64 62 62 63 54 62 63 60
Wind_Direction
342 16 331 281 291 324 337 257 314 270 254 259 259 262 268 269 262 250 251 250 249 251 246 245 247 245 244 247 247 248 247 240 241 236 244 245 243 245 245 246 242 256 248 253 249 250 251 243 248
358 29 248 9 263 284 271 272 316 306 262 298 261 258 276 265 262 260 257 258 254 253 254 248 248 248 246 244 246 244 244 241 246 246 253 254 249 249 249 246 248 247 249 247 250 243 242 253 254
311 21 22 1 319 331 4 254 314 305 296 268 296 298 285 265 261 261 258 255 257 262 258 258 255 250 247 248 245 245 246 242 243 244 250 248 251 248 247 248 248 247 245 243 244 250 253 251 255
275 11 11 267 269 4 319 358 257 356 312 247 253 302 290 260 287 258 270 274 249 261 265 256 259 256 253 249 245 249 245 246 242 244 245 248 251 247 249 247 245 254 246 250 253 242 250 257 254
317 313 316 10 330 353 289 266 330 299 292 335 262 307 278 252 269 291 256 256 257 243 252 238 256 261 251 250 246 243 245 243 245 246 247 248 248 248 251 253 254 249 248 249 249 248 248 248 253
345 12 282 292 302 346 344 323 327 324 285 301 307 295 302 303 310 249 247 254 234 249 248 258 257 248 255 256 254 252 248 245 236 243 249 245 248 250 248 249 245 252 252 249 249 250 251 251 250
308 303 303 344 2 338 307 325 296 322 270 285 290 316 291 303 356 274 316 262 249 239 241 236 251 250 248 252 250 246 249 254 248 238 232 236 245 249 246 250 251 254 247 250 250 251 254 252 253
359 308 4 312 299 347 339 330 349 289 337 289 343 300 333 350 293 332 346 298 260 250 234 236 251 254 246 246 246 249 250 247 247 243 243 247 229 231 252 250 251 253 251 251 252 252 252 251 249
338 327 297 340 346 294 304 317 323 319 332 291 311 306 304 298 291 299 273 292 228 266 231 234 248 240 250 251 249 248 248 244 247 242 245 248 243 248 245 244 248 254 252 252 253 253 254 252 254
331 332 339 348 342 339 345 296 322 314 331 319 289 299 300 273 296 308 263 222 276 284 256 247 232 236 244 243 249 247 246 246 243 253 244 243 244 246 245 244 245 246 249 252 252 254 254 256 253
285 324 319 335 295 299 332 323 325 329 332 325 330 290 330 301 286 282 325 259 283 245 341 257 226 235 235 241 246 245 245 246 242 244 245 248 243 242 245 245 245 242 245 253 246 251 255 251 250
328 331 316 305 331 332 317 330 330 333 328 301 306 321 301 321 324 284 309 336 240 254 276 9 262 231 242 242 244 248 246 247 243 240 242 246 246 245 247 248 247 247 245 241 247 255 255 255 255
318 324 328 319 319 336 327 335 334 312 332 332 316 320 323 294 285 291 319 282 330 344 267 252 259 307 243 258 245 246 247 243 241 242 241 246 244 249 247 247 246 243 247 246 256 256 250 255 256
303 321 315 325 325 319 326 331 322 325 326 298 285 320 323 306 307 316 289 255 290 281 248 257 326 337 285 262 245 246 247 246 242 241 242 244 247 245 247 249 249 250 252 254 249 251 258 258 248
317 318 320 322 328 323 314 330 328 328 315 328 328 326 322 325 321 311 303 300 292 312 334 269 259 261 328 261 279 257 244 245 245 242 241 241 245 248 250 249 252 249 258 250 249 251 257 257 258
314 319 323 325 327 328 332 329 330 319 325 325 324 319 317 317 318 307 319 288 282 274 274 319 320 303 314 314 288 270 263 251 244 246 242 245 244 246 247 247 245 248 249 249 251 257 259 257 252
319 320 322 320 319 318 319 319 309 319 319 316 321 321 322 313 313 303 312 303 299 270 302 272 292 299 317 287 256 266 269 265 255 242 240 244 247 246 247 248 249 248 249 254 252 252 255 258 259
316 323 322 321 318 321 321 317 314 310 316 315 312 312 313 309 313 313 290 305 285 298 282 292 272 263 255 307 297 284 270 268 263 256 247 242 244 247 249 250 250 250 251 250 251 252 253 255 258
316 319 320 317 319 317 313 316 317 319 321 316 316 316 316 307 314 303 320 297 309 296 290 282 286 266 271 299 261 278 255 263 260 261 256 249 247 245 248 244 248 249 250 250 250 251 253 255 258
310 312 320 313 315 316 319 319 317 319 316 314 315 315 309 313 313 314 322 314 315 307 296 288 296 283 282 286 275 273 261 261 253 256 258 254 254 253 248 247 247 248 251 251 251 251 252 253 253
312 317 319 313 317 316 314 315 314 316 312 312 312 311 312 313 316 312 307 312 310 296 289 285 292 289 283 275 279 271 266 263 254 257 252 256 257 255 251 248 248 247 249 251 253 255 256 256 256
311 308 314 317 316 314 312 314 309 313 311 313 311 312 310 311 311 314 307 306 304 291 281 277 284 286 281 287 274 271 270 261 261 255 256 258 254 256 258 255 252 250 251 252 251 252 254 256 256
303 310 307 312 306 315 311 311 311 310 310 315 314 309 311 306 308 310 311 299 293 284 276 283 274 287 275 266 270 264 262 266 255 258 256 258 251 257 261 262 259 258 257 254 253 253 254 253 257
302 311 310 312 317 312 310 315 307 308 311 308 312 311 310 297 316 309 304 293 288 279 272 268 266 267 281 263 271 266 265 261 262 253 258 254 252 255 257 256 256 258 260 262 262 260 259 259 257
307 306 302 302 304 309 314 310 309 308 306 307 307 307 312 317 312 306 298 289 283 276 272 268 266 263 262 260 262 269 257 261 258 258 254 256 263 260 262 262 258 258 261 259 257 260 262 260 256
307 305 303 318 319 313 319 309 308 310 307 309 310 309 320 314 307 301 294 288 281 274 273 269 264 261 260 256 259 267 260 255 256 262 256 257 257 259 261 255 264 265 262 265 265 266 264 262 261
308 307 307 307 318 322 313 310 312 309 310 309 307 308 314 306 303 296 290 284 279 275 271 269 265 262 257 259 257 260 266 266 253 255 256 258 259 260 260 261 262 258 265 260 267 271 267 274 268
315 310 312 311 313 313 317 306 307 305 305 310 314 309 316 303 300 294 288 281 274 271 267 266 262 259 263 254 252 257 264 265 247 253 255 259 260 261 260 266 266 268 265 265 267 274 272 271 276
299 305 313 306 316 310 316 310 305 310 310 310 308 313 310 301 297 291 284 279 275 271 268 266 263 260 259 259 256 259 259 260 249 253 252 262 258 260 263 265 268 268 271 271 276 280 274 281 281
304 303 316 320 320 312 308 317 306 310 310 310 311 313 304 300 296 291 282 279 274 270 268 266 264 262 260 256 254 256 257 260 248 251 255 254 256 260 264 267 268 270 273 275 279 268 279 282 278